• In Uzbekistan
  • List of Countries
  • For 7 days
  • Water Temperature
  • Satellite Maps
  • Weather Map
  • Weather Widgets
  • user-avatar
    Login

    Hourly Weather Nampho

    Today, 17 January, Thursday

    Time Temperature Precipitation Wind Pressure Humidity
    00:00 -4°C° 0 mm 3 mps 765 mmHg 70%
    01:00 -4°C° 0 mm 3 mps 765 mmHg 70%
    02:00 -4°C° 0 mm 2 mps 765 mmHg 70%
    03:00 -4°C° 0 mm 2 mps 765 mmHg 69%
    04:00 -5°C° 0 mm 2 mps 765 mmHg 68%
    05:00 -5°C° 0 mm 2 mps 765 mmHg 67%
    06:00 -5°C° 0 mm 2 mps 765 mmHg 63%
    07:00 -5°C° 0 mm 2 mps 765 mmHg 60%
    08:00 -3°C° 0 mm 1 mps 765 mmHg 56%
    09:00 -4°C° 0 mm 2 mps 766 mmHg 49%
    10:00 -2°C° 0 mm 3 mps 766 mmHg 42%
    11:00 -1°C° 0 mm 3 mps 766 mmHg 35%
    12:00 -2°C° 0 mm 4 mps 766 mmHg 35%
    13:00 -2°C° 0 mm 4 mps 765 mmHg 35%
    14:00 -1°C° 0 mm 5 mps 765 mmHg 35%
    15:00 -2°C° 0 mm 4 mps 766 mmHg 40%
    16:00 -3°C° 0 mm 4 mps 766 mmHg 45%
    17:00 -4°C° 0 mm 3 mps 766 mmHg 50%
    18:00 -4°C° 0 mm 3 mps 766 mmHg 51%
    19:00 -4°C° 0 mm 3 mps 767 mmHg 52%
    20:00 -3°C° 0 mm 2 mps 767 mmHg 52%
    21:00 -3°C° 0 mm 2 mps 767 mmHg 51%
    22:00 -4°C° 0 mm 2 mps 768 mmHg 50%
    23:00 -2°C° 0 mm 1 mps 768 mmHg 49%

    Tomorrow, 18 January, Friday

    Time Temperature Precipitation Wind Pressure Humidity
    00:00 -2°C° 0 mm 1 mps 768 mmHg 48%
    01:00 -2°C° 0 mm 1 mps 768 mmHg 47%
    02:00 -3°C° 0 mm 0 mps 768 mmHg 46%
    03:00 -3°C° 0 mm 0 mps 768 mmHg 45%
    04:00 -3°C° 0 mm 0 mps 768 mmHg 44%
    05:00 -3°C° 0 mm 0 mps 768 mmHg 43%
    06:00 -2°C° 0 mm 1 mps 768 mmHg 42%
    07:00 -2°C° 0 mm 1 mps 768 mmHg 41%
    08:00 -2°C° 0 mm 1 mps 768 mmHg 40%
    09:00 0°C° 0 mm 1 mps 768 mmHg 39%
    10:00 -1°C° 0 mm 2 mps 768 mmHg 39%
    11:00 +2°C° 0 mm 2 mps 768 mmHg 38%
    12:00 +3°C° 0 mm 2 mps 768 mmHg 42%
    13:00 +3°C° 0 mm 3 mps 767 mmHg 46%
    14:00 +4°C° 0 mm 3 mps 767 mmHg 51%
    15:00 +2°C° 0 mm 3 mps 767 mmHg 57%
    16:00 +2°C° 0 mm 2 mps 767 mmHg 63%
    17:00 +1°C° 0 mm 2 mps 767 mmHg 69%
    18:00 -1°C° 0 mm 2 mps 767 mmHg 70%
    19:00 +1°C° 0 mm 1 mps 767 mmHg 72%
    20:00 +1°C° 0 mm 1 mps 767 mmHg 73%
    21:00 +1°C° 0 mm 1 mps 767 mmHg 72%
    22:00 +1°C° 0 mm 1 mps 767 mmHg 71%
    23:00 +1°C° 0 mm 1 mps 767 mmHg 70%

    Day after tomorrow, 19 January, Saturday

    Time Temperature Precipitation Wind Pressure Humidity
    00:00 +1°C° 0 mm 1 mps 767 mmHg 68%
    01:00 0°C° 0 mm 1 mps 767 mmHg 66%
    02:00 0°C° 0 mm 1 mps 767 mmHg 64%
    03:00 0°C° 0 mm 1 mps 766 mmHg 63%
    04:00 +1°C° 0 mm 1 mps 766 mmHg 62%
    05:00 +1°C° 0 mm 1 mps 766 mmHg 61%
    06:00 +1°C° 0 mm 1 mps 766 mmHg 61%
    07:00 +1°C° 0 mm 1 mps 766 mmHg 61%
    08:00 +1°C° 0 mm 1 mps 766 mmHg 61%
    09:00 +2°C° 0 mm 1 mps 766 mmHg 59%
    10:00 +2°C° 0 mm 2 mps 766 mmHg 56%
    11:00 +3°C° 0 mm 2 mps 766 mmHg 54%
    12:00 +1°C° 0 mm 3 mps 766 mmHg 54%
    13:00 +1°C° 0 mm 3 mps 765 mmHg 54%
    14:00 0°C° 0 mm 4 mps 765 mmHg 53%
    15:00 -1°C° 0 mm 4 mps 765 mmHg 55%
    16:00 -1°C° 0 mm 3 mps 765 mmHg 57%
    17:00 -2°C° 0 mm 3 mps 765 mmHg 59%
    18:00 -4°C° 0 mm 4 mps 765 mmHg 57%
    19:00 -4°C° 0 mm 4 mps 765 mmHg 54%
    20:00 -4°C° 0 mm 4 mps 765 mmHg 51%
    21:00 -5°C° 0 mm 5 mps 766 mmHg 50%
    22:00 -5°C° 0 mm 5 mps 766 mmHg 48%
    23:00 -6°C° 0 mm 6 mps 766 mmHg 46%

    20 January, Sunday

    Time Temperature Precipitation Wind Pressure Humidity
    00:00 -6°C° 0 mm 6 mps 766 mmHg 45%
    01:00 -7°C° 0 mm 7 mps 766 mmHg 43%
    02:00 -7°C° 0 mm 7 mps 766 mmHg 41%
    03:00 -7°C° 0 mm 7 mps 766 mmHg 41%
    04:00 -7°C° 0 mm 7 mps 766 mmHg 42%
    05:00 -7°C° 0 mm 7 mps 766 mmHg 42%
    06:00 -8°C° 0 mm 7 mps 767 mmHg 41%
    07:00 -8°C° 0 mm 7 mps 768 mmHg 41%
    08:00 -8°C° 0 mm 7 mps 768 mmHg 40%
    09:00 -7°C° 0 mm 7 mps 768 mmHg 37%
    10:00 -7°C° 0 mm 8 mps 768 mmHg 34%
    11:00 -6°C° 0 mm 8 mps 768 mmHg 31%
    12:00 -6°C° 0 mm 8 mps 768 mmHg 32%
    13:00 -6°C° 0 mm 8 mps 768 mmHg 32%
    14:00 -6°C° 0 mm 7 mps 767 mmHg 33%
    15:00 -7°C° 0 mm 7 mps 768 mmHg 35%
    16:00 -6°C° 0 mm 6 mps 768 mmHg 37%
    17:00 -7°C° 0 mm 5 mps 768 mmHg 39%
    18:00 -7°C° 0 mm 4 mps 768 mmHg 41%
    19:00 -5°C° 0 mm 4 mps 768 mmHg 42%
    20:00 -5°C° 0 mm 3 mps 769 mmHg 43%
    21:00 -6°C° 0 mm 3 mps 769 mmHg 44%
    22:00 -5°C° 0 mm 2 mps 768 mmHg 45%
    23:00 -5°C° 0 mm 2 mps 768 mmHg 47%

    21 January, Monday

    Time Temperature Precipitation Wind Pressure Humidity
    00:00 -5°C° 0 mm 2 mps 768 mmHg 49%
    01:00 -3°C° 0 mm 1 mps 767 mmHg 52%
    02:00 -3°C° 0 mm 1 mps 767 mmHg 55%
    03:00 -3°C° 0 mm 1 mps 767 mmHg 58%
    04:00 -5°C° 0 mm 2 mps 766 mmHg 61%
    05:00 -5°C° 0 mm 2 mps 766 mmHg 64%
    06:00 -4°C° 0 mm 2 mps 766 mmHg 65%
    07:00 -4°C° 0 mm 2 mps 765 mmHg 67%
    08:00 -4°C° 0 mm 2 mps 765 mmHg 69%
    09:00 -2°C° 0 mm 3 mps 765 mmHg 62%
    10:00 -1°C° 0 mm 4 mps 765 mmHg 55%
    11:00 +1°C° 0 mm 5 mps 764 mmHg 48%
    12:00 +1°C° 0 mm 5 mps 763 mmHg 48%
    13:00 +1°C° 0 mm 5 mps 763 mmHg 48%
    14:00 +1°C° 0 mm 5 mps 762 mmHg 48%
    15:00 0°C° 0 mm 4 mps 762 mmHg 54%
    16:00 -1°C° 0 mm 3 mps 761 mmHg 59%
    17:00 -2°C° 0 mm 2 mps 761 mmHg 65%
    18:00 -2°C° 0 mm 2 mps 761 mmHg 66%
    19:00 -3°C° 0 mm 2 mps 761 mmHg 67%
    20:00 -3°C° 0 mm 2 mps 762 mmHg 67%
    21:00 -3°C° 0 mm 2 mps 762 mmHg 63%
    22:00 -4°C° 0 mm 3 mps 762 mmHg 59%
    23:00 -4°C° 0 mm 3 mps 762 mmHg 56%

    22 January, Tuesday

    Time Temperature Precipitation Wind Pressure Humidity
    00:00 -4°C° 0 mm 4 mps 762 mmHg 51%
    01:00 -4°C° 0 mm 4 mps 762 mmHg 46%
    02:00 -5°C° 0 mm 5 mps 762 mmHg 42%
    03:00 -6°C° 0 mm 5 mps 762 mmHg 43%
    04:00 -6°C° 0 mm 6 mps 762 mmHg 45%
    05:00 -6°C° 0 mm 6 mps 762 mmHg 46%
    06:00 -8°C° 0 mm 6 mps 763 mmHg 46%
    07:00 -8°C° 0 mm 7 mps 763 mmHg 46%
    08:00 -8°C° 0 mm 7 mps 763 mmHg 46%
    09:00 -7°C° 0 mm 7 mps 764 mmHg 44%
    10:00 -7°C° 0 mm 7 mps 764 mmHg 42%
    11:00 -6°C° 0 mm 7 mps 764 mmHg 40%
    12:00 -6°C° 0 mm 8 mps 764 mmHg 37%
    13:00 -5°C° 0 mm 8 mps 763 mmHg 34%
    14:00 -5°C° 0 mm 8 mps 763 mmHg 31%
    15:00 -5°C° 0 mm 8 mps 763 mmHg 32%
    16:00 -6°C° 0 mm 8 mps 764 mmHg 34%
    17:00 -7°C° 0 mm 7 mps 764 mmHg 35%
    18:00 -7°C° 0 mm 8 mps 764 mmHg 35%
    19:00 -7°C° 0 mm 8 mps 765 mmHg 35%
    20:00 -7°C° 0 mm 8 mps 765 mmHg 35%
    21:00 -8°C° 0 mm 8 mps 765 mmHg 35%
    22:00 -8°C° 0 mm 8 mps 765 mmHg 36%
    23:00 -8°C° 0 mm 7 mps 766 mmHg 37%
    Show more